www.pogodaiklimat.ru

Погода и климат >> Архив погоды >> Австралия >> Западная Австралия >> Перт


АРХИВ ПОГОДЫ в Перте

Время (UTC), дата Ветер
(напр.,м/с)
 
Видим.   Явления Облачность Т
(С)
Тd
(С)
f
(%)
Тe
(С)
Тes
(С)
Комфортность P
(гПа)
Po
(гПа)
Тmin
(С)
Tmax
(С)
R
(мм)
R24
(мм)
S
(см)
19 9.01 ЮВ 2 30 км ясно +15.3 +13.1 87 +15 +15 холодно 1010.6 1008.3
21 9.01 С 3 н/о н/о +13.2 +11.9 92 +12 +12 очень
холодно
1011.1 1008.8
23 9.01 СВ 1 н/о н/о +14.7 1009.8
22 9.01 СВ 2 25 км 1/0
[Ci fib]
+13.9 +12.2 89 +13 +14 очень
холодно
1011.8 1009.5
00 10.01 ЮЗ 3 н/о н/о +22.6 +15.0 62 +26 +26 жарко 1012.0 1009.7
01 10.01 З 4 25 км дым 1/1 600 м
[Sc Ci sp]
+24.4 +15.8 59 +28 +35 душно 1011.7 1009.4 +13.3
03 10.01 З 7 н/о н/о +24.5 +15.6 58 +28 +28 душно 1012.2 1009.9
04 10.01 З 7 25 км 1/1 600 м
[Sc]
+24.9 +14.7 53 +28 +34 жарко 1012.5 1010.2
05 10.01 З 2 н/о н/о +24.5 1010.3
06 10.01 З 7 н/о н/о +24.7 +14.2 52 +27 +27 жарко 1012.2 1009.9
07 10.01 ЮЗ 8 30 км 1/1 600 м
[Sc]
+24.5 +13.6 51 +27 +29 жарко 1012.8 1010.5
09 10.01 Ю 9 н/о н/о +22.3 +12.0 52 +25 +25 комфорт 1013.0 1010.7
10 10.01 ЮЗ 7 25 км 1/1 600 м
[Sc]
+21.8 +12.0 54 +24 +24 комфорт 1013.0 1010.7
11 10.01 ЮЗ 2 н/о н/о +22.0 1012.0
12 10.01 ЮЗ 8 н/о н/о +19.5 +11.7 61 +20 +20 холодно 1014.7 1012.4
13 10.01 ЮЗ 7 30 км 5/5 600 м
[Sc]
+19.2 +12.0 63 +20 +20 прохладно 1015.5 1013.2 +26.2
15 10.01 ЮЗ 7 н/о н/о +18.6 +12.9 69 +19 +19 прохладно 1015.7 1013.4
16 10.01 Ю 5 30 км 4/4 600 м
[Sc]
+17.6 +13.0 74 +17 +17 прохладно 1015.7 1013.4
17 10.01 Ю 1 н/о н/о +18.9 1013.7
18 10.01 Ю 4 н/о н/о +16.8 +13.2 79 +16 +16 прохладно 1015.6 1013.3
19 10.01 Ю 3 30 км 1/1 600 м
[Sc]
+14.4 +12.6 89 +14 +14 очень
холодно
1015.4 1013.1
21 10.01 В 2 н/о н/о +12.4 +11.5 94 +12 +12 очень
холодно
1016.1 1013.8
23 10.01 ЮВ 1 н/о н/о +12.9 1015.4
22 10.01 Ю 1 30 км 1/0
[Ci sp]
+12.4 +11.6 95 +12 +13 очень
холодно
1016.9 1014.6
00 11.01 Ю 3 н/о н/о +20.7 +12.9 61 +23 +23 комфорт 1017.7 1015.4
01 11.01 Ю 5 30 км 4/4 600 м
[Sc]
+21.8 +12.0 54 +24 +28 комфорт 1017.4 1015.1 +11.7
03 11.01 ЮЗ 3 н/о н/о +25.3 +10.8 40 +26 +26 жарко 1016.8 1014.5
04 11.01 ЮЗ 3 30 км 1/0
[Ci sp]
+27.2 +10.5 35 +28 +45 жарко 1016.4 1014.1
05 11.01 З 2 н/о н/о +25.2 1013.4
06 11.01 ЮЗ 7 н/о н/о +27.2 +11.4 37 +28 +28 жарко 1015.2 1012.9
07 11.01 ЮЗ 8 30 км 1/0
[Ci sp]
+26.5 +12.1 41 +28 +31 жарко 1015.0 1012.7
09 11.01 ЮЗ 8 н/о н/о +26.4 +9.3 34 +27 +27 жарко 1014.1 1011.8
10 11.01 ЮЗ 8 30 км ясно +25.2 +7.9 33 +25 +26 комфорт 1014.1 1011.8
12 11.01 ЮЗ 5 н/о н/о +22.1 +12.6 55 +25 +25 комфорт 1014.9 1012.6
13 11.01 ЮЗ 5 30 км ясно +21.0 +12.5 58 +23 +23 комфорт 1015.4 1013.1 +28.3
15 11.01 Ю 5 н/о н/о +19.1 +12.1 64 +20 +20 по сезону 1015.4 1013.1
16 11.01 Ю 4 30 км ясно +18.2 +12.6 70 +18 +18 по сезону 1015.0 1012.7
18 11.01 Ю 3 н/о н/о +13.5 +11.4 87 +12 +12 холодно 1013.9 1011.6
19 11.01 штиль 0 30 км ясно +12.2 +10.9 92 +12 +12 очень
холодно
1013.7 1011.4
21 11.01 З 2 н/о н/о +15.7 +11.0 74 +16 +16 прохладно 1014.1 1011.8
22 11.01 СВ 4 30 км ясно +18.5 +9.6 56 +19 +19 прохладно 1014.8 1012.5
00 12.01 В 5 н/о н/о +23.5 +9.5 41 +24 +24 комфорт 1014.9 1012.6
01 12.01 ЮВ 3 30 км ясно +27.6 +10.1 33 +28 +38 жарко 1014.3 1012.0 +12.1
03 12.01 ЮЗ 5 н/о н/о +32.5 +9.9 25 +32 +32 жарко 1013.5 1011.2
04 12.01 З 5 30 км ясно +32.1 +12.4 30 +33 +44 жарко 1012.8 1010.5
06 12.01 З 7 н/о н/о +33.8 +11.1 25 +33 +33 жарко 1011.3 1009.0
07 12.01 ЮЗ 8 30 км ясно +34.3 +8.1 20 +33 +36 жарко 1010.6 1008.3
09 12.01 ЮЗ 9 н/о н/о +31.5 +6.7 21 +30 +30 жарко 1009.9 1007.6
10 12.01 ЮЗ 8 30 км ясно +29.2 +11.3 33 +30 +30 жарко 1010.2 1007.9
12 12.01 ЮЗ 7 н/о н/о +24.2 +12.8 49 +26 +26 жарко 1011.3 1009.0
13 12.01 ЮЗ 6 25 км 3/0
[Ac trans]
+23.6 +13.0 51 +26 +26 жарко 1011.6 1009.3 +35.5
15 12.01 ЮЗ 5 н/о н/о +22.4 +14.8 62 +26 +26 жарко 1011.4 1009.1
16 12.01 ЮЗ 4 25 км ясно +22.0 +15.1 65 +26 +26 душно 1010.7 1008.4
18 12.01 ЮЗ 4 н/о н/о +20.9 +16.8 77 +25 +25 комфорт 1009.6 1007.3
19 12.01 ЮЗ 4 20 км мгла ясно +20.7 +16.4 76 +24 +24 комфорт 1009.4 1007.1
21 12.01 ЮЗ 5 н/о н/о +19.2 +15.5 79 +20 +20 по сезону 1010.4 1008.1
22 12.01 ЮЗ 4 15 км мгла 1/1 300 м
[St]
+19.1 +15.5 80 +20 +21 прохладно 1011.5 1009.2
00 13.01 Ю 7 н/о н/о +21.8 +14.1 62 +25 +25 комфорт 1013.7 1011.4
01 13.01 Ю 9 15 км мгла ясно +24.0 +11.1 44 +25 +27 комфорт 1013.7 1011.4 +19.0
03 13.01 ЮЗ 8 н/о н/о +27.1 +13.8 44 +29 +29 жарко 1013.3 1011.0
04 13.01 З 8 30 км ясно +27.7 +14.4 44 +30 +34 жарко 1013.1 1010.8
06 13.01 ЮЗ 8 н/о н/о +27.3 +15.5 48 +30 +30 душно 1012.7 1010.4
07 13.01 ЮЗ 8 30 км ясно +27.5 +15.8 49 +31 +33 душно 1012.5 1010.2
09 13.01 ЮЗ 9 н/о н/о +26.3 +16.8 56 +30 +30 душно 1012.3 1010.0
10 13.01 ЮЗ 8 30 км ясно +25.5 +16.8 59 +29 +30 душно 1012.6 1010.3
12 13.01 ЮЗ 8 н/о н/о +22.9 +16.7 68 +28 +28 душно 1013.7 1011.4
13 13.01 ЮЗ 7 25 км ясно +22.4 +16.7 70 +27 +27 душно 1014.0 1011.7 +28.8
15 13.01 Ю 8 н/о н/о +21.7 +15.5 68 +25 +25 комфорт 1014.3 1012.0
16 13.01 Ю 7 30 км ясно +20.9 +15.1 69 +24 +24 комфорт 1014.3 1012.0
18 13.01 Ю 3 н/о н/о +19.6 +14.8 74 +22 +22 комфорт 1013.4 1011.1
19 13.01 Ю 4 н/о н/о +20.6 +13.6 64 +23 +23 комфорт 1013.3 1011.0
21 13.01 ЮВ 2 н/о н/о +17.9 +13.9 77 +18 +18 прохладно 1013.6 1011.3
22 13.01 Ю 3 30 км ясно +19.3 +14.1 72 +21 +22 комфорт 1014.2 1011.9
00 14.01 Ю 4 н/о н/о +22.7 +14.0 58 +26 +26 жарко 1014.3 1012.0
01 14.01 Ю 3 30 км ясно +24.6 +13.3 49 +27 +37 жарко 1013.9 1011.6 +17.6
03 14.01 СЗ 3 н/о н/о +28.5 +13.3 39 +30 +30 жарко 1012.7 1010.4
05 14.01 З 2 н/о н/о +28.5 1009.3
04 14.01 З 6 30 км 1/1 1500 м
[Cu med, cong]
+29.8 +14.0 38 +32 +39 душно 1012.0 1009.7
06 14.01 З 7 н/о н/о +28.0 +14.8 44 +30 +30 жарко 1011.1 1008.8
07 14.01 ЮЗ 8 30 км 1/1 1500 м
[Cu hum]
+28.6 +13.5 39 +30 +32 жарко 1010.9 1008.6
09 14.01 ЮЗ 8 н/о н/о +26.8 +13.0 42 +28 +28 жарко 1010.8 1008.5
10 14.01 ЮЗ 8 30 км ясно +24.5 +13.4 50 +27 +27 жарко 1011.0 1008.7
11 14.01 ЮЗ 2 н/о н/о +26.0 1009.3
12 14.01 ЮЗ 7 н/о н/о +21.6 +13.0 58 +24 +24 комфорт 1011.9 1009.6
13 14.01 ЮЗ 7 30 км ясно +20.8 +15.0 69 +24 +24 комфорт 1012.2 1009.9 +30.3
15 14.01 ЮЗ 5 н/о н/о +20.3 +14.1 68 +23 +23 комфорт 1012.2 1009.9
16 14.01 Ю 6 30 км ясно +19.6 +12.5 64 +21 +21 комфорт 1011.8 1009.5
17 14.01 ЮЗ 1 н/о н/о +20.3 1009.3
18 14.01 ЮЗ 4 н/о н/о +18.3 +11.1 63 +18 +18 по сезону 1011.0 1008.7
19 14.01 Ю 5 30 км ясно +19.1 +9.7 54 +20 +20 по сезону 1010.8 1008.5
21 14.01 ЮВ 4 н/о н/о +17.5 +9.9 61 +17 +17 прохладно 1011.6 1009.3
22 14.01 В 3 30 км ясно +16.9 +9.9 63 +17 +17 холодно 1012.4 1010.1
23 14.01 ЮВ 1 н/о н/о +16.8 1011.0
00 15.01 ЮВ 3 н/о н/о +20.4 +10.0 51 +22 +22 комфорт 1013.1 1010.8
01 15.01 ЮВ 4 30 км ясно +22.5 +10.3 46 +24 +33 комфорт 1013.0 1010.7 +16.3
03 15.01 Ю 3 н/о н/о +27.2 +10.7 36 +28 +28 жарко 1011.7 1009.4
05 15.01 З 3 н/о н/о +27.3 1007.8
04 15.01 ЮЗ 4 30 км ясно +28.3 +10.9 34 +29 +45 жарко 1011.0 1008.7
06 15.01 ЮЗ 9 н/о н/о +28.9 +13.0 38 +30 +30 жарко 1009.7 1007.4
07 15.01 ЮЗ 10 30 км ясно +27.1 +12.5 40 +29 +29 жарко 1009.8 1007.5
09 15.01 ЮЗ 9 н/о н/о +26.0 +12.5 43 +28 +28 жарко 1009.7 1007.4
10 15.01 ЮЗ 8 25 км ясно +24.2 +12.8 49 +26 +26 жарко 1009.9 1007.6
11 15.01 ЮЗ 3 н/о н/о +25.2 1008.0
12 15.01 ЮЗ 7 н/о н/о +21.1 +13.9 63 +24 +24 комфорт 1010.3 1008.0
13 15.01 ЮЗ 7 30 км ясно +20.6 +14.0 66 +23 +23 комфорт 1010.7 1008.4 +30.6
15 15.01 ЮЗ 5 н/о н/о +20.1 +12.7 62 +22 +22 комфорт 1010.8 1008.5
16 15.01 Ю 6 30 км ясно +19.3 +11.3 60 +20 +20 тепло 1010.7 1008.4
17 15.01 Ю 2 н/о н/о +20.0 1008.4
18 15.01 Ю 6 н/о н/о +17.3 +11.0 66 +17 +17 по сезону 1010.3 1008.0
19 15.01 Ю 4 30 км ясно +15.5 +11.2 76 +15 +15 холодно 1010.1 1007.8
21 15.01 ЮЗ 4 н/о н/о +16.4 +10.6 69 +16 +16 прохладно 1011.0 1008.7
22 15.01 Ю 4 30 км ясно +15.9 +10.6 71 +15 +15 очень
холодно
1011.6 1009.3
23 15.01 Ю 1 н/о н/о +16.4 1010.1
00 16.01 ЮВ 3 н/о н/о +20.7 +11.1 54 +23 +23 комфорт 1012.2 1009.9
01 16.01 ЮВ 3 30 км ясно +22.4 +11.0 48 +24 +34 комфорт 1012.1 1009.8 +14.6
03 16.01 Ю 4 н/о н/о +26.6 +10.8 37 +27 +27 жарко 1011.0 1008.7
05 16.01 З 2 н/о н/о +27.3 1008.5
04 16.01 З 8 30 км ясно +26.0 +12.8 44 +28 +31 жарко 1010.9 1008.6
06 16.01 ЮЗ 10 н/о н/о +26.5 +12.1 41 +28 +28 жарко 1010.4 1008.1
07 16.01 ЮЗ 10 25 км ясно +25.6 +11.8 42 +27 +28 жарко 1010.4 1008.1
09 16.01 ЮЗ 9 н/о н/о +24.6 +10.8 42 +26 +26 жарко 1010.6 1008.3
10 16.01 ЮЗ 9 30 км ясно +23.4 +11.0 46 +26 +26 жарко 1011.0 1008.7
12 16.01 ЮЗ 8 н/о н/о +19.9 +12.4 62 +21 +21 комфорт 1012.0 1009.7
13 16.01 ЮЗ 7 30 км ясно +19.3 +12.3 64 +20 +20 прохладно 1012.5 1010.2 +29.3
15 16.01 ЮЗ 6 н/о н/о +18.1 +13.1 73 +18 +18 прохладно 1012.7 1010.4
16 16.01 Ю 5 30 км ясно +17.3 +13.4 78 +17 +17 по сезону 1012.5 1010.2
18 16.01 Ю 6 н/о н/о +16.5 +13.3 81 +15 +15 прохладно 1012.3 1010.0
19 16.01 Ю 6 30 км ясно +16.1 +12.5 79 +15 +15 тепло 1012.1 1009.8

 

Местоположение метеостанции Перт (Западная Австралия, Австралия): широта -31.93 долгота 115.96 высота над уровнем моря 20 м.

В архиве по умолчанию представлена погода в Перте за последнюю неделю. Архивные данные за месяц целиком и за предыдущие месяцы, начиная с января 2011 года, Вы можете получить, выбрав интересующий диапазон дат из раскрывающегося списка и нажав кнопку "Ввод!".


*Определитесь, кто Вы:
робот инопланетянин человек

Внимание! Время в таблицах - всемирное. Для получения местного времени необходимо прибавить поправку, которая равна 8 ч.

Смотрите также архив погоды в соседних городах и на ближайших метеорологических станциях:

Погода в Перт Монт-Лоули (Западная Австралия, Австралия) (9 км)
Погода в Гусберри Хилл (Западная Австралия, Австралия) (9 км)
Погода в Суонборне (Западная Австралия, Австралия) (18 км)
Погода в Обсерватории Перт (Западная Австралия, Австралия) (19 км)
Погода в Перт Джандакот (Западная Австралия, Австралия) (20 км)
Погода в Ошен Риф (Западная Австралия, Австралия) (29 км)
Погода в Буллсбрук Пирс (Западная Австралия, Австралия) (29 км)
Погода на Острове Гарден (Западная Австралия, Австралия) (43 км)
Погода на Острове Роттнест (Западная Австралия, Австралия) (45 км)
Погода в Гингине (Западная Австралия, Австралия) (52 км)

Пояснения к столбцам:

Ветер - указаны скорость ветра в м/с - средняя за 10 мин, порывы в срок и между сроками (в фигурных скобках) и направление, откуда дует ветер: С - северный, СВ - северо-восточный, В - восточный, ЮВ - юго-восточный, Ю - южный, ЮЗ - юго-западный, З - западный, СЗ - северо-западный.
Видимость - горизонтальная дальность видимости в метрах или километрах. При видимости от 1 до 10 км при отсутствии осадков обычно наблюдается дымка, при ухудшении видимости до 1 км и менее - туман. В сухую погоду видимость может ухудшаться дымом, пылью или мглою.
Явления - указаны атмосферные явления, наблюдавшиеся в срок или в последний час перед сроком; фигурными скобками обозначены явления, наблюдавшиеся между сроками (за 1-3 часа до срока); квадратными скобками обозначены град или гололедные отложения с указанием их диаметра в мм.
Облачность - указаны через наклонную черту общая и нижняя облачность в баллах и высота нижней границы облаков в метрах; квадратными скобками обозначены формы облаков: Ci - перистые, Cs - перисто-слоистые, Cc - перисто-кучевые, Ac - высококучевые, As - высокослоистые, Sc - слоисто-кучевые, Ns - слоисто-дождевые, Cu - кучевые, Cb - кучево-дождевые. Подробнее классификацию облаков см. в Атласе облаков (PDF).
T - Температура воздуха - температура, измеренная на высоте 2 м над землей.
Td - Температура точки росы - температура, при понижении до которой содержащийся в воздухе водяной пар достигнет насыщения.
f - Относительная влажность воздуха - влажноcть воздуха, измеренная на высоте 2 м над землей.
Te - Эффективная температура - температура, которую ощущает одетый по сезону человек в тени. Характеристика душности погоды. При расчете учитывается влияние влажности воздуха и скорости ветра на теплоощущения человека.
Tes - Эффективная температура на солнце - температура, которую ощущает человек, с поправкой на солнечный нагрев. Характеристика знойности погоды. Зависит от высоты солнца над горизонтом, облачности и скорости ветра. Ночью, в пасмурную погоду, а также при ветре 12 м/с и более поправка равна нулю.
P - Атмосферное давление - приведенное к уровню моря атмосферное давление.
Po - Атмосферное давление - измеренное на уровне метеостанции атмосферное давление.
Tmin - Минимальная температура - минимум температуры воздуха на высоте 2 м над землей.
Tmax - Максимальная температура - максимум температуры воздуха на высоте 2 м над землей.
R - Количество осадков - Количество выпавших осадков за период времени, мм. При наведении курсора мыши на число - период времени, за который выпало указанное количество осадков.
R24 - Количество осадков - Количество выпавших осадков за 24 часа, мм.
S - Снежный покров - Высота снежного покрова, см. При наведении курсора мыши на число - состояние снежного покрова и степень покрытия местности в баллах.